Location: Gad�tanya
(48.0500°N, 20.8500°E)
Time: 11:49:14
(UTC+00:00)

Cosmos 1680 Rocket - Pass Details

Date: 05 July 2020
Orbit: 760 x 781 km, 74.1° (Epoch: 14 August)

Event Time Altitude Azimuth Distance (km) Brightness Sun altitude
Exits shadow 21:35:38 22° 205° (SSW) 1,640 4.8 -17.8°
Maximum altitude 21:39:07 84° 293° (WNW) 792 3.5 -17.9°
Drops below altitude 10° 21:44:28 10° 22° (NNE) 2,346 6.8 -18.1°
Sets 21:46:52 0° 23° (NNE) 3,277 7.7 -18.2°
